DPTAW,2015-09-21,14:20:00,530701-002,0,0,128,0,0,0,0,128,0,,28.78,0,0,,0,0,0,,72.8,0,0,0,12.69,0
DPTAW,2015-07-27,17:15:00,530701-002,1,5.6,133,0,0,0,0,133,0,,30.06,0,0,,0,0,0,,68.8,0,0,13.48,8.45,71
DPTAW,2015-07-27,17:05:00,530701-002,2,4.5,93,0,0,0,0,93,0,,30.15,0,0,,0,0,0,,67.7,0,0,13.91,8.5,107
DPTAW,2015-07-27,16:55:00,530701-002,3,5.6,100,0,0,0,0,100,0,,30.26,0,0,,0,0,0,,67.1,0,0,13.8,8.53,126
DPTAW,2015-07-27,16:50:00,530701-002,4,3,94,0,0,0,0,94,0,,30.32,0,0,,0,0,0,,67.1,0,0,13.83,8.53,151
DPTAW,2015-07-27,16:45:00,530701-002,5,4,170,0,0,0,0,170,0,,30.28,0,0,,0,0,0,,67.2,0,0,13.83,8.58,181
DPTAW,2015-07-27,16:40:00,530701-002,6,5.8,180,0,0,0,0,180,0,,30.31,0,0,,0,0,0,,66.5,0,0,13.83,8.63,164
DPTAW,2015-07-27,16:35:00,530701-002,7,3,114,0,0,0,0,114,0,,30.38,0,0,,0,0,0,,65.9,0,0,13.8,8.63,157
DPTAW,2015-07-27,16:30:00,530701-002,8,5.8,111,0,0,0,0,111,0,,30.42,0,0,,0,0,0,,64.6,0,0,13.75,8.63,158
DPTAW,2015-07-27,16:20:00,530701-002,9,3.7,131,0,0,0,0,131,0,,30.54,0,0,,0,0,0,,63.6,0,0,13.8,10.36,185
DPTAW,2015-07-27,16:15:00,530701-002,10,6.3,124,0,0,0,0,124,0,,30.54,0,0,,0,0,0,,63,0,0,13.75,10.49,199
DPTAW,2015-07-27,16:10:00,530701-002,11,5.7,170,0,0,0,0,170,0,,30.64,0,0,,0,0,0,,62.8,0,0,13.48,10.56,212
DPTAW,2015-07-27,16:05:00,530701-002,12,4.4,144,0,0,0,0,144,0,,30.74,0,0,,0,0,0,,63.7,0,0,13.61,10.56,215
DPTAW,2015-07-27,16:00:00,530701-002,13,6.2,158,0,0,0,0,158,0,,30.83,0,0,,0,0,0,,62.9,0,0,13.8,10.51,241
DPTAW,2015-07-27,15:55:00,530701-002,14,5,152,0,0,0,0,152,0,,30.89,0,0,,0,0,0,,62.2,0,0,13.15,10.49,261
DPTAW,2015-07-27,15:50:00,530701-002,15,3.3,157,0,0,0,0,157,0,,30.93,0,0,,0,0,0,,63.4,0,0,13.8,10.59,308
DPTAW,2015-07-27,15:45:00,530701-002,16,4.9,115,0,0,0,0,115,0,,30.9,0,0,,0,0,0,,62.3,0,0,13.91,10.59,305
DPTAW,2015-07-27,15:40:00,530701-002,17,7.7,84,0,0,0,0,84,0,,30.95,0,0,,0,0,0,,61.4,0,0,12.79,10.59,3
DPTAW,2015-07-27,15:35:00,530701-002,18,2.5,151,0,0,0,0,151,0,,30.95,0,0,,0,0,0,,64.5,0,0,14.19,10.76,502
DPTAW,2015-07-27,15:30:00,530701-002,19,2.7,104,0,0,0,0,104,0,,30.8,0,0,,0,0,0,,64.7,0,0,15.56,10.59,320
DPTAW,2015-07-27,15:20:00,530701-002,20,2,185,0,0,0,0,185,0,,30.87,0,0,,0,0,0,,64.2,0,0,12.93,10.51,282
DPTAW,2015-07-27,15:15:00,530701-002,21,2.4,203,0,0,0,0,203,0,,30.82,0,0,,0,0,0,,64.2,0,0,12.52,10.51,278
DPTAW,2015-07-27,15:10:00,530701-002,22,3.9,183,0,0,0,0,183,0,,30.84,0,0,,0,0,0,,64.1,0,0,12.16,10.51,283
DPTAW,2015-07-27,15:00:00,530701-002,23,2.4,2,0,0,0,0,2,0,,30.97,0,0,,0,0,0,,64.2,0,0,15.8,10.59,299
DPTAW,2015-07-27,14:55:00,530701-002,24,2.9,143,0,0,0,0,143,0,,30.9,0,0,,0,0,0,,64.5,0,0,17.09,10.69,420
DPTAW,2015-07-27,14:50:00,530701-002,25,5.5,130,0,0,0,0,130,0,,30.91,0,0,,0,0,0,,64.2,0,0,18.19,10.59,490
DPTAW,2015-07-27,14:45:00,530701-002,26,3.2,130,0,0,0,0,130,0,,31.12,0,0,,0,0,0,,64.3,0,0,17.31,10.59,424
DPTAW,2015-07-27,14:40:00,530701-002,27,2.7,146,0,0,0,0,146,0,,31.22,0,0,,0,0,0,,66.9,0,0,16.38,10.71,441
DPTAW,2015-07-27,14:35:00,530701-002,28,3,164,0,0,0,0,164,0,,30.92,0,0,,0,0,0,,65.6,0,0,12.35,11.48,926
DPTAW,2015-07-27,14:25:00,530701-002,29,5.9,137,0,0,0,0,137,0,,30.97,0,0,,0,0,0,,67.1,0,0,12.16,10.81,694
DPTAW,2015-07-27,14:20:00,530701-002,30,3,153,0,0,0,0,153,0,,30.97,0,0,,0,0,0,,67.3,0,0,14.43,10.88,719
DPTAW,2015-07-27,14:15:00,530701-002,31,5.4,203,0,0,0,0,203,0,,31.06,0,0,,0,0,0,,66.6,0,0,13.8,10.71,453
DPTAW,2015-07-27,14:10:00,530701-002,32,4.6,195,0,0,0,0,195,0,,31.21,0,0,,0,0,0,,69,0,0,17.94,10.81,716
DPTAW,2015-07-27,14:00:00,530701-002,33,8.6,131,0,0,0,0,131,0,,30.81,0,0,,0,0,0,,68.1,0,0,12.16,11.21,994
DPTAW,2015-07-27,13:55:00,530701-002,34,6.2,194,0,0,0,0,194,0,,30.62,0,0,,0,0,0,,69.6,0,0,12.05,11.11,951
DPTAW,2015-07-27,13:50:00,530701-002,35,7.2,210,0,0,0,0,210,0,,30.42,0,0,,0,0,0,,71.1,0,0,15.78,10.81,509
DPTAW,2015-07-27,13:45:00,530701-002,36,3.9,184,0,0,0,0,184,0,,30.3,0,0,,0,0,0,,70.1,0,0,12.05,11.71,820
DPTAW,2015-07-27,13:40:00,530701-002,37,5,131,0,0,0,0,131,0,,30.24,0,0,,0,0,0,,70.8,0,0,12.27,10.76,449
DPTAW,2015-07-27,13:35:00,530701-002,38,3.5,106,0,0,0,0,106,0,,30.08,0,0,,0,0,0,,70.7,0,0,17.2,10.81,469
DPTAW,2015-07-27,12:55:00,530701-002,39,5.1,234,0,0,0,0,234,0,,29.42,0,0,,0,0,0,,72.4,0,0,13.78,10.41,266
DPTAW,2015-07-27,12:50:00,530701-002,40,4.3,206,0,0,0,0,206,0,,29.61,0,0,,0,0,0,,71.5,0,0,13.8,10.44,247
DPTAW,2015-07-27,12:45:00,530701-002,41,4.3,183,0,0,0,0,183,0,,29.61,0,0,,0,0,0,,71.2,0,0,13.8,10.49,256
DPTAW,2015-07-27,12:35:00,530701-002,42,4.3,156,0,0,0,0,156,0,,29.57,0,0,,0,0,0,,72.6,0,0,12.27,10.59,380
DPTAW,2015-07-27,12:30:00,530701-002,43,7.1,130,0,0,0,0,130,0,,29.43,0,0,,0,0,0,,72.2,0,0,15.23,10.71,422
DPTAW,2015-07-27,12:25:00,530701-002,44,5.9,171,0,0,0,0,171,0,,29.31,0,0,,0,0,0,,73.3,0,0,18.93,10.49,392
DPTAW,2015-07-27,12:20:00,530701-002,45,4.2,168,0,0,0,0,168,0,,29.19,0,0,,0,0,0,,73,0,0,12.46,10.56,344
DPTAW,2015-07-27,12:15:00,530701-002,46,4,130,0,0,0,0,130,0,,29.12,0,0,,0,0,0,,73.9,0,0,13.8,10.44,184
DPTAW,2015-07-27,12:10:00,530701-002,47,6.2,167,0,0,0,0,167,0,,29.07,0,0,,0,0,0,,72.9,0,0,13.59,10.49,303
DPTAW,2015-07-27,12:00:00,530701-002,48,4.8,153,0,0,0,0,153,0,,29.23,0,0,,0,0,0,,73.6,0,0,13.59,10.49,196
DPTAW,2015-07-27,11:55:00,530701-002,49,3.6,180,0,0,0,0,180,0,,29.22,0,0,,0,0,0,,73.1,0,0,13.69,10.49,254
DPTAW,2015-07-27,11:50:00,530701-002,50,7.4,180,0,0,0,0,180,0,,29.25,0,0,,0,0,0,,72.4,0,0,13.8,10.49,291
DPTAW,2015-07-27,11:45:00,530701-002,51,8.1,119,0,0,0,0,119,0,,29.35,0,0,,0,0,0,,71.9,0,0,17.26,10.59,308
DPTAW,2015-07-27,11:40:00,530701-002,52,8.6,178,0,0,0,0,178,0,,29.53,0,0,,0,0,0,,71,0,0,13.34,10.59,341
DPTAW,2015-07-27,11:35:00,530701-002,53,9.3,125,0,0,0,0,125,0,,29.73,0,0,,0,0,0,,70.7,0,0,17.94,10.71,522
DPTAW,2015-07-27,11:30:00,530701-002,54,8.2,146,0,0,0,0,146,0,,29.88,0,0,,0,0,0,,71.2,0,0,13.12,10.81,626
DPTAW,2015-07-27,11:20:00,530701-002,55,9.2,198,0,0,0,0,198,0,,29.79,0,0,,0,0,0,,71.9,0,0,18.87,10.64,679
DPTAW,2015-07-27,11:00:00,530701-002,56,7,186,0,0,0,0,186,0,,28.94,0,0,,0,0,0,,75.2,0,0,12.05,11.16,869
DPTAW,2015-07-27,10:55:00,530701-002,57,9.8,165,0,0,0,0,165,0,,28.72,0,0,,0,0,0,,74.3,0,0,12.9,10.81,524
DPTAW,2015-07-27,10:50:00,530701-002,58,9.1,204,0,0,0,0,204,0,,28.78,0,0,,0,0,0,,74.5,0,0,14.71,10.88,616
DPTAW,2015-07-27,10:45:00,530701-002,59,7,149,0,0,0,0,149,0,,28.71,0,0,,0,0,0,,75.1,0,0,16.65,11.01,633
DPTAW,2015-07-27,10:35:00,530701-002,60,8.6,223,0,0,0,0,223,0,,28.48,0,0,,0,0,0,,74.8,0,0,17.61,10.81,480
DPTAW,2015-07-27,10:30:00,530701-002,61,6.3,164,0,0,0,0,164,0,,28.49,0,0,,0,0,0,,74.8,0,0,16.3,10.83,404
DPTAW,2015-07-27,10:25:00,530701-002,62,6.7,154,0,0,0,0,154,0,,28.44,0,0,,0,0,0,,74.9,0,0,14.87,10.81,449
DPTAW,2015-07-27,10:20:00,530701-002,63,7.2,117,0,0,0,0,117,0,,28.37,0,0,,0,0,0,,76.1,0,0,18,10.76,408
DPTAW,2015-07-27,10:15:00,530701-002,64,4.2,135,0,0,0,0,135,0,,28.33,0,0,,0,0,0,,76.9,0,0,16.41,10.91,457
DPTAW,2015-07-27,10:10:00,530701-002,65,4.6,146,0,0,0,0,146,0,,28.03,0,0,,0,0,0,,78,0,0,15.78,10.83,387
DPTAW,2015-07-27,10:05:00,530701-002,66,7.4,160,0,0,0,0,160,0,,27.9,0,0,,0,0,0,,77.6,0,0,17.64,10.69,328
DPTAW,2015-07-27,09:55:00,530701-002,67,7.7,98,0,0,0,0,98,0,,27.99,0,0,,0,0,0,,75.8,0,0,16.24,10.71,308
DPTAW,2015-07-27,09:50:00,530701-002,68,8.1,99,0,0,0,0,99,0,,28.13,0,0,,0,0,0,,75.6,0,0,17.91,10.64,347
DPTAW,2015-07-27,09:45:00,530701-002,69,5.9,84,0,0,0,0,84,0,,28.22,0,0,,0,0,0,,76.3,0,0,15.06,10.88,520
DPTAW,2015-07-27,09:40:00,530701-002,70,7.8,73,0,0,0,0,73,0,,28.02,0,0,,0,0,0,,76.7,0,0,12.87,10.88,504
DPTAW,2015-07-27,09:35:00,530701-002,71,3.1,140,0,0,0,0,140,0,,27.79,0,0,,0,0,0,,77.4,0,0,13.8,9.42,453
DPTAW,2015-07-27,09:30:00,530701-002,72,5.5,175,0,0,0,0,175,0,,27.58,0,0,,0,0,0,,77.9,0,0,13.8,9,310
DPTAW,2015-07-27,09:20:00,530701-002,73,5.7,118,0,0,0,0,118,0,,27.48,0,0,,0,0,0,,77.4,0,0,13.75,8.9,280
DPTAW,2015-07-27,09:15:00,530701-002,74,5.3,88,0,0,0,0,88,0,,27.48,0,0,,0,0,0,,78.4,0,0,13.78,8.83,241
DPTAW,2015-07-27,09:05:00,530701-002,75,7,138,0,0,0,0,138,0,,27.33,0,0,,0,0,0,,78,0,0,13.8,8.85,225
DPTAW,2015-07-27,09:00:00,530701-002,76,7.1,113,0,0,0,0,113,0,,27.35,0,0,,0,0,0,,77.9,0,0,13.67,8.9,277
DPTAW,2015-07-27,08:55:00,530701-002,77,5.7,142,0,0,0,0,142,0,,27.34,0,0,,0,0,0,,78,0,0,13.75,8.9,270
DPTAW,2015-07-27,08:50:00,530701-002,78,6.1,1,0,0,0,0,1,0,,27.31,0,0,,0,0,0,,78.6,0,0,13.69,8.85,248
DPTAW,2015-07-27,08:45:00,530701-002,79,6,114,0,0,0,0,114,0,,27.26,0,0,,0,0,0,,79.4,0,0,13.8,8.9,281
DPTAW,2015-07-27,08:40:00,530701-002,80,6.6,120,0,0,0,0,120,0,,27.1,0,0,,0,0,0,,80,0,0,13.75,8.9,296
DPTAW,2015-07-27,08:35:00,530701-002,81,8.8,123,0,0,0,0,123,0,,27.02,0,0,,0,0,0,,79.5,0,0,13.67,8.9,258
DPTAW,2015-07-27,08:30:00,530701-002,82,5.3,1,0,0,0,0,1,0,,27.05,0,0,,0,0,0,,80.3,0,0,13.83,8.8,219
DPTAW,2015-07-27,08:20:00,530701-002,83,4.5,126,0,0,0,0,126,0,,26.86,0,0,,0,0,0,,80.8,0,0,13.75,8.73,193
DPTAW,2015-07-27,08:05:00,530701-002,84,3.8,141,0,0,0,0,141,0,,26.74,0,0,,0,0,0,,81.6,0,0,13.67,8.63,183
DPTAW,2015-07-27,08:00:00,530701-002,85,6.5,128,0,0,0,0,128,0,,26.69,0,0,,0,0,0,,81.6,0,0,13.61,8.63,172
DPTAW,2015-07-27,07:50:00,530701-002,86,4.4,121,0,0,0,0,121,0,,26.53,0,0,,0,0,0,,82.4,0,0,13.8,8.63,170
DPTAW,2015-07-27,07:45:00,530701-002,87,4.3,75,0,0,0,0,75,0,,26.42,0,0,,0,0,0,,82.7,0,0,13.8,8.63,158
DPTAW,2015-07-27,07:40:00,530701-002,88,3.3,99,0,0,0,0,99,0,,26.28,0,0,,0,0,0,,84.1,0,0,13.83,8.58,142
DPTAW,2015-07-27,07:30:00,530701-002,89,3,144,0,0,0,0,144,0,,26.11,0,0,,0,0,0,,85.2,0,0,13.97,8.45,129
DPTAW,2015-07-27,07:25:00,530701-002,90,3.7,107,0,0,0,0,107,0,,25.95,0,0,,0,0,0,,85.1,0,0,13.91,8.45,125
DPTAW,2015-07-27,07:20:00,530701-002,91,1.6,103,0,0,0,0,103,0,,25.8,0,0,,0,0,0,,85.5,0,0,14,8.45,116
DPTAW,2015-07-27,07:15:00,530701-002,92,0,0,0,0,0,0,0,0,,2,0,0,,0,0,0,,86.1,0,0,13.8,8.41,102
DPTAW,2015-07-27,07:10:00,530701-002,93,0,0,0,0,0,0,0,0,,25.68,0,0,,0,0,0,,86.1,0,0,13.69,8.41,96
DPTAW,2015-07-27,07:05:00,530701-002,94,0,0,0,0,0,0,0,0,,25.6,0,0,,0,0,0,,86.1,0,0,13.97,8,92
DPTAW,2015-07-26,17:45:00,530701-002,95,1.4,184,0,0,0,0,184,0,,29.44,0,0,,0,0,0,,75.4,0,0,14.54,8.5,95
DPTAW,2015-07-26,17:40:00,530701-002,96,2.8,158,0,0,0,0,158,0,,29.5,0,0,,0,0,0,,75.4,0,0,14.05,8.5,84
DPTAW,2015-07-26,17:35:00,530701-002,97,2.7,178,0,0,0,0,178,0,,29.6,0,0,,0,0,0,,74.9,0,0,14.22,8.53,104
DPTAW,2015-07-26,17:30:00,530701-002,98,5,141,0,0,0,0,141,0,,29.75,0,0,,0,0,0,,73.2,0,0,13.89,8.5,117
DPTAW,2015-07-26,17:25:00,530701-002,99,3.2,87,0,0,0,0,87,0,,29.91,0,0,,0,0,0,,73.3,0,0,13.75,8.63,189
DPTAW,2015-07-26,17:20:00,530701-002,100,3.2,169,0,0,0,0,169,0,,29.94,0,0,,0,0,0,,72.5,0,0,13.78,8.63,185
DPTAW,2015-07-26,17:15:00,530701-002,101,3.4,190,0,0,0,0,190,0,,29.98,0,0,,0,0,0,,72.5,0,0,13.8,8.58,203
DPTAW,2015-07-26,16:45:00,530701-002,102,2,169,0,0,0,0,169,0,,29.69,0,0,,0,0,0,,72.9,0,0,13.83,8.65,212
DPTAW,2015-07-26,16:40:00,530701-002,103,3.7,149,0,0,0,0,149,0,,29.67,0,0,,0,0,0,,72.5,0,0,13.8,8.58,183
DPTAW,2015-07-26,16:35:00,530701-002,104,3.5,188,0,0,0,0,188,0,,29.69,0,0,,0,0,0,,72.1,0,0,13.83,8.65,218
DPTAW,2015-07-26,16:30:00,530701-002,105,3.8,173,0,0,0,0,173,0,,29.74,0,0,,0,0,0,,72.2,0,0,13.8,8.65,230
DPTAW,2015-07-26,16:25:00,530701-002,106,5.8,124,0,0,0,0,124,0,,29.72,0,0,,0,0,0,,71,0,0,13.78,8.65,237
DPTAW,2015-07-26,16:20:00,530701-002,107,2.3,213,0,0,0,0,213,0,,29.79,0,0,,0,0,0,,72.8,0,0,13.75,8.65,240
DPTAW,2015-07-26,16:15:00,530701-002,108,3.3,156,0,0,0,0,156,0,,29.72,0,0,,0,0,0,,71.7,0,0,13.78,8.73,253
DPTAW,2015-07-26,16:10:00,530701-002,109,6.7,181,0,0,0,0,181,0,,29.76,0,0,,0,0,0,,71.6,0,0,13.8,8.73,267
DPTAW,2015-07-26,16:05:00,530701-002,110,3.5,202,0,0,0,0,202,0,,29.83,0,0,,0,0,0,,72.3,0,0,13.8,8.73,244
DPTAW,2015-07-26,15:55:00,530701-002,111,3.6,194,0,0,0,0,194,0,,29.98,0,0,,0,0,0,,71.8,0,0,13.75,8.83,318
DPTAW,2015-07-26,15:50:00,530701-002,112,2.8,174,0,0,0,0,174,0,,30.02,0,0,,0,0,0,,71.9,0,0,13.75,8.83,344
DPTAW,2015-07-26,15:45:00,530701-002,113,3.6,150,0,0,0,0,150,0,,30.05,0,0,,0,0,0,,72.2,0,0,13.8,9,458
DPTAW,2015-07-26,15:40:00,530701-002,114,2.9,150,0,0,0,0,150,0,,29.91,0,0,,0,0,0,,73.7,0,0,13.8,8.85,375
DPTAW,2015-07-26,15:30:00,530701-002,115,5.8,175,0,0,0,0,175,0,,29.56,0,0,,0,0,0,,73.6,0,0,13.8,8.85,360
DPTAW,2015-07-26,15:25:00,530701-002,116,6.8,180,0,0,0,0,180,0,,29.7,0,0,,0,0,0,,72.6,0,0,13.67,8.85,370
DPTAW,2015-07-26,15:20:00,530701-002,117,6.8,172,0,0,0,0,172,0,,29.95,0,0,,0,0,0,,71.3,0,0,13.8,8.83,349
DPTAW,2015-07-26,15:15:00,530701-002,118,7,136,0,0,0,0,136,0,,30.12,0,0,,0,0,0,,70.4,0,0,13.8,9,495
DPTAW,2015-07-26,15:10:00,530701-002,119,4.7,202,0,0,0,0,202,0,,30.2,0,0,,0,0,0,,70.9,0,0,13.8,9.05,511
DPTAW,2015-07-26,15:00:00,530701-002,120,5.5,176,0,0,0,0,176,0,,30.05,0,0,,0,0,0,,71,0,0,13.8,9.05,532
DPTAW,2015-07-26,14:55:00,530701-002,121,5.1,85,0,0,0,0,85,0,,29.94,0,0,,0,0,0,,70.2,0,0,13.8,9,506
DPTAW,2015-07-26,14:50:00,530701-002,122,5.9,148,0,0,0,0,148,0,,29.84,0,0,,0,0,0,,72.2,0,0,13.75,9.12,525
DPTAW,2015-07-26,14:45:00,530701-002,123,5.3,113,0,0,0,0,113,0,,29.95,0,0,,0,0,0,,72.1,0,0,13.8,8.85,362
DPTAW,2015-07-26,14:40:00,530701-002,124,3.9,166,0,0,0,0,166,0,,30.1,0,0,,0,0,0,,71.3,0,0,13.75,8.85,369
DPTAW,2015-07-26,14:35:00,530701-002,125,7,181,0,0,0,0,181,0,,30.25,0,0,,0,0,0,,69.5,0,0,13.8,9,417
DPTAW,2015-07-26,14:30:00,530701-002,126,3.2,237,0,0,0,0,237,0,,30.4,0,0,,0,0,0,,70.6,0,0,13.8,9,466
DPTAW,2015-07-26,14:25:00,530701-002,127,5.3,131,0,0,0,0,131,0,,30.3,0,0,,0,0,0,,71.7,0,0,13.8,8.98,397
DPTAW,2015-07-26,14:20:00,530701-002,128,4.9,143,0,0,0,0,143,0,,30.3,0,0,,0,0,0,,70.6,0,0,13.78,9,436
DPTAW,2015-07-26,14:15:00,530701-002,129,7.2,196,0,0,0,0,196,0,,30.29,0,0,,0,0,0,,71.3,0,0,13.8,9.05,490
DPTAW,2015-07-26,14:10:00,530701-002,130,5.9,168,0,0,0,0,168,0,,30.53,0,0,,0,0,0,,68.8,0,0,13.69,8.9,392
DPTAW,2015-07-26,14:05:00,530701-002,131,4.7,179,0,0,0,0,179,0,,30.86,0,0,,0,0,0,,67.4,0,0,13.75,9,448
DPTAW,2015-07-26,14:00:00,530701-002,132,3.7,228,0,0,0,0,228,0,,31.02,0,0,,0,0,0,,69.2,0,0,13.8,9.12,563
DPTAW,2015-07-26,13:55:00,530701-002,133,4.1,194,0,0,0,0,194,0,,31.06,0,0,,0,0,0,,68.7,0,0,13.67,9.17,562
DPTAW,2015-07-26,13:50:00,530701-002,134,4,123,0,0,0,0,123,0,,31.12,0,0,,0,0,0,,68.8,0,0,13.8,9.12,631
DPTAW,2015-07-26,13:45:00,530701-002,135,2.2,216,0,0,0,0,216,0,,30.88,0,0,,0,0,0,,69.1,0,0,13.69,9.3,928
DPTAW,2015-07-26,13:40:00,530701-002,136,2.7,176,0,0,0,0,176,0,,30.73,0,0,,0,0,0,,68.1,0,0,13.8,9.12,530
DPTAW,2015-07-26,13:35:00,530701-002,137,3.5,177,0,0,0,0,177,0,,30.8,0,0,,0,0,0,,68.7,0,0,13.8,8.98,495
DPTAW,2015-07-26,13:30:00,530701-002,138,3.6,168,0,0,0,0,168,0,,30.56,0,0,,0,0,0,,68.5,0,0,13.69,9.25,857
DPTAW,2015-07-26,13:25:00,530701-002,139,5.4,132,0,0,0,0,132,0,,30.19,0,0,,0,0,0,,71.1,0,0,13.67,9.17,624
DPTAW,2015-07-26,13:20:00,530701-002,140,6.8,179,0,0,0,0,179,0,,30.19,0,0,,0,0,0,,70.9,0,0,13.75,9.22,641
DPTAW,2015-07-26,13:15:00,530701-002,141,2.1,157,0,0,0,0,157,0,,30.27,0,0,,0,0,0,,71,0,0,13.75,9.05,479
DPTAW,2015-07-26,13:00:00,530701-002,142,4.2,100,0,0,0,0,100,0,,30.24,0,0,,0,0,0,,72.1,0,0,13.8,9.02,504
DPTAW,2015-07-26,12:55:00,530701-002,143,3.5,186,0,0,0,0,186,0,,30.25,0,0,,0,0,0,,70.1,0,0,13.8,9.05,505
DPTAW,2015-07-26,12:50:00,530701-002,144,4.6,134,0,0,0,0,134,0,,30.24,0,0,,0,0,0,,69,0,0,13.8,9.22,584
DPTAW,2015-07-26,12:45:00,530701-002,145,4.8,181,0,0,0,0,181,0,,30.35,0,0,,0,0,0,,69,0,0,13.78,9.17,655
DPTAW,2015-07-26,12:40:00,530701-002,146,4.2,120,0,0,0,0,120,0,,30.25,0,0,,0,0,0,,71,0,0,13.67,9.22,733
DPTAW,2015-07-26,12:30:00,530701-002,147,3.6,177,0,0,0,0,177,0,,30.13,0,0,,0,0,0,,72,0,0,13.8,9.25,614
DPTAW,2015-07-26,12:25:00,530701-002,148,3.4,219,0,0,0,0,219,0,,29.9,0,0,,0,0,0,,69.7,0,0,13.67,9.05,547
DPTAW,2015-07-26,12:15:00,530701-002,149,3.3,99,0,0,0,0,99,0,,29.87,0,0,,0,0,0,,69.9,0,0,13.75,9.17,809
DPTAW,2015-07-26,12:10:00,530701-002,150,7.2,119,0,0,0,0,119,0,,29.77,0,0,,0,0,0,,70.2,0,0,13.8,9.12,707
DPTAW,2015-07-26,12:05:00,530701-002,151,4.9,117,0,0,0,0,117,0,,30,0,0,,0,0,0,,72.2,0,0,13.75,9.22,816
DPTAW,2015-07-26,12:00:00,530701-002,152,2.7,1,0,0,0,0,1,0,,29.98,0,0,,0,0,0,,74.3,0,0,13.8,9.2,654
DPTAW,2015-07-26,11:55:00,530701-002,153,3.3,180,0,0,0,0,180,0,,29.6,0,0,,0,0,0,,74,0,0,13.8,9.2,650
DPTAW,2015-07-26,11:50:00,530701-002,154,3.5,155,0,0,0,0,155,0,,29.34,0,0,,0,0,0,,73,0,0,13.78,9.05,573
DPTAW,2015-07-26,11:45:00,530701-002,155,4.4,126,0,0,0,0,126,0,,29.18,0,0,,0,0,0,,73.9,0,0,13.78,8.93,465
DPTAW,2015-07-26,11:40:00,530701-002,156,5.4,173,0,0,0,0,173,0,,29.1,0,0,,0,0,0,,73.5,0,0,13.69,8.93,429
DPTAW,2015-07-26,11:35:00,530701-002,157,3.3,84,0,0,0,0,84,0,,29.05,0,0,,0,0,0,,73.8,0,0,13.75,8.9,398
DPTAW,2015-07-26,11:30:00,530701-002,158,4.3,175,0,0,0,0,175,0,,28.92,0,0,,0,0,0,,72.4,0,0,13.67,8.83,326
DPTAW,2015-07-26,11:25:00,530701-002,159,4.6,119,0,0,0,0,119,0,,28.94,0,0,,0,0,0,,72.7,0,0,13.8,8.83,266
DPTAW,2015-07-26,11:20:00,530701-002,160,4.3,232,0,0,0,0,232,0,,29.01,0,0,,0,0,0,,71.5,0,0,13.8,8.73,226
DPTAW,2015-07-26,11:15:00,530701-002,161,2.9,174,0,0,0,0,174,0,,29.04,0,0,,0,0,0,,72.5,0,0,13.75,8.83,274
DPTAW,2015-07-26,11:10:00,530701-002,162,4.3,131,0,0,0,0,131,0,,29,0,0,,0,0,0,,71.5,0,0,13.69,8.83,315
DPTAW,2015-07-26,11:00:00,530701-002,163,3.9,189,0,0,0,0,189,0,,28.98,0,0,,0,0,0,,71,0,0,13.8,8.83,314
DPTAW,2015-07-26,10:55:00,530701-002,164,4.9,122,0,0,0,0,122,0,,29.07,0,0,,0,0,0,,70.8,0,0,13.67,8.73,264
DPTAW,2015-07-26,10:50:00,530701-002,165,5.1,211,0,0,0,0,211,0,,29.28,0,0,,0,0,0,,72.4,0,0,13.8,8.83,309
DPTAW,2015-07-26,10:45:00,530701-002,166,4.5,133,0,0,0,0,133,0,,29.44,0,0,,0,0,0,,71,0,0,13.67,8.83,313
DPTAW,2015-07-26,10:40:00,530701-002,167,4.4,90,0,0,0,0,90,0,,29.45,0,0,,0,0,0,,72.9,0,0,13.75,8.93,444
DPTAW,2015-07-26,10:35:00,530701-002,168,3.1,133,0,0,0,0,133,0,,29.49,0,0,,0,0,0,,71.1,0,0,13.8,9,452
DPTAW,2015-07-26,10:30:00,530701-002,169,3.8,204,0,0,0,0,204,0,,29.52,0,0,,0,0,0,,71.1,0,0,13.8,8.9,415
DPTAW,2015-07-26,10:25:00,530701-002,170,5.5,176,0,0,0,0,176,0,,29.59,0,0,,0,0,0,,69.3,0,0,13.8,9,507
DPTAW,2015-07-26,10:20:00,530701-002,171,1.5,194,0,0,0,0,194,0,,29.81,0,0,,0,0,0,,71,0,0,13.8,8.93,454
DPTAW,2015-07-26,10:15:00,530701-002,172,0.8,194,0,0,0,0,194,0,,29.55,0,0,,0,0,0,,72.1,0,0,13.8,9.12,798
DPTAW,2015-07-26,10:10:00,530701-002,173,2.3,186,0,0,0,0,186,0,,29.45,0,0,,0,0,0,,72.7,0,0,13.8,9.05,586
DPTAW,2015-07-26,10:00:00,530701-002,174,1.3,175,0,0,0,0,175,0,,28.9,0,0,,0,0,0,,74.2,0,0,13.69,8.9,411
DPTAW,2015-07-26,09:50:00,530701-002,175,0.3,159,0,0,0,0,159,0,,28.58,0,0,,0,0,0,,76,0,0,13.8,8.8,288
DPTAW,2015-07-26,09:45:00,530701-002,176,0.5,139,0,0,0,0,139,0,,28.36,0,0,,0,0,0,,75.1,0,0,13.67,8.78,256
DPTAW,2015-07-26,09:35:00,530701-002,177,1.5,171,0,0,0,0,171,0,,28.11,0,0,,0,0,0,,77.6,0,0,13.67,8.73,242
DPTAW,2015-07-26,09:25:00,530701-002,178,2.9,219,0,0,0,0,219,0,,28,0,0,,0,0,0,,77.6,0,0,13.91,8.63,166
DPTAW,2015-07-26,09:10:00,530701-002,179,1.9,159,0,0,0,0,159,0,,28.09,0,0,,0,0,0,,75.5,0,0,13.69,8.65,197
DPTAW,2015-07-26,09:05:00,530701-002,180,1.4,15,0,0,0,0,15,0,,28.12,0,0,,0,0,0,,75.9,0,0,13.91,8.63,165
DPTAW,2015-07-26,09:00:00,530701-002,181,2.8,158,0,0,0,0,158,0,,28.14,0,0,,0,0,0,,75.518,0,0,0.236,13.8,187
DPTAW,2015-07-26,08:50:00,530701-002,182,0.2,82,0,0,0,0,82,0,,28.39,0,0,,0,0,0,,75,0,0,13.8,8.63,188
DPTAW,2015-07-26,08:45:00,530701-002,183,1.8,177,0,0,0,0,177,0,,28.42,0,0,,0,0,0,,74.7,0,0,13.8,8.73,202
DPTAW,2015-07-26,08:35:00,530701-002,184,1.7,178,0,0,0,0,178,0,,28.31,0,0,,0,0,0,,74.2,0,0,13.8,8.78,294
DPTAW,2015-07-26,08:30:00,530701-002,185,1.5,156,0,0,0,0,156,0,,28.3,0,0,,0,0,0,,76.5,0,0,13.8,8.8,318
DPTAW,2015-07-26,08:25:00,530701-002,186,2.8,173,0,0,0,0,173,0,,28.17,0,0,,0,0,0,,76.3,0,0,13.75,8.8,396
DPTAW,2015-07-26,08:05:00,530701-002,187,3.7,128,0,0,0,0,128,0,,27.35,0,0,,0,0,0,,80.4,0,0,13.8,8.63,237
DPTAW,2015-07-26,08:00:00,530701-002,188,2.9,150,0,0,0,0,150,0,,27.24,0,0,,0,0,0,,79.6,0,0,13.75,8.63,219
DPTAW,2015-07-26,07:55:00,530701-002,189,2.1,99,0,0,0,0,99,0,,27.16,0,0,,0,0,0,,80.4,0,0,13.67,8.63,0
DPTAW,2015-07-26,07:50:00,530701-002,190,2.2,112,0,0,0,0,112,0,,27.02,0,0,,0,0,0,,79.9,0,0,13.8,8.58,198
DPTAW,2015-07-26,07:45:00,530701-002,191,3.1,1,0,0,0,0,1,0,,26.94,0,0,,0,0,0,,80.2,0,0,13.69,8.45,166
DPTAW,2015-07-26,07:35:00,530701-002,192,1.3,147,0,0,0,0,147,0,,26.61,0,0,,0,0,0,,80.6,0,0,13.8,8.41,231
DPTAW,2015-07-26,07:15:00,530701-002,193,3,97,0,0,0,0,97,0,,26.02,0,0,,0,0,0,,80.1,0,0,13.91,8.33,101
DPTAW,2015-07-26,07:10:00,530701-002,194,1.2,166,0,0,0,0,166,0,,25.93,0,0,,0,0,0,,80,0,0,13.8,8.33,79
DPTAW,2015-07-25,17:50:00,530701-002,195,0,194,0,0,0,0,194,0,,30.28,0,0,,0,0,0,,69.9,0,0,13.75,8.5,68
DPTAW,2015-07-25,17:40:00,530701-002,196,10.5,137,0,0,0,0,137,0,,30.46,0,0,,0,0,0,,69.1,0,0,14.41,8.5,73
DPTAW,2015-07-25,17:30:00,530701-002,197,5.6,185,0,0,0,0,185,0,,30.58,0,0,,0,0,0,,68,0,0,14.87,8.5,82
DPTAW,2015-07-25,17:25:00,530701-002,198,7.7,158,0,0,0,0,158,0,,30.62,0,0,,0,0,0,,67.5,0,0,13.69,8.53,89
DPTAW,2015-07-25,17:20:00,530701-002,199,6,160,0,0,0,0,160,0,,30.62,0,0,,0,0,0,,67.2,0,0,14.19,8.58,116
DPTAW,2015-07-25,17:15:00,530701-002,200,5,165,0,0,0,0,165,0,,30.68,0,0,,0,0,0,,67.2,0,0,13.89,8.53,124
DPTAW,2015-07-25,17:10:00,530701-002,201,4.7,178,0,0,0,0,178,0,,30.7,0,0,,0,0,0,,67.9,0,0,13.8,8.58,131
DPTAW,2015-07-25,17:00:00,530701-002,202,3.5,169,0,0,0,0,169,0,,30.75,0,0,,0,0,0,,67.6,0,0,14,8.53,127
DPTAW,2015-07-25,16:55:00,530701-002,203,4.9,118,0,0,0,0,118,0,,30.82,0,0,,0,0,0,,67.8,0,0,14.02,8.58,109
DPTAW,2015-07-25,16:50:00,530701-002,204,6.2,200,0,0,0,0,200,0,,30.83,0,0,,0,0,0,,67.6,0,0,13.83,8.73,224
DPTAW,2015-07-25,16:45:00,530701-002,205,4.6,125,0,0,0,0,125,0,,30.81,0,0,,0,0,0,,68,0,0,13.8,8.63,180
DPTAW,2015-07-25,16:40:00,530701-002,206,4.4,155,0,0,0,0,155,0,,30.86,0,0,,0,0,0,,66.5,0,0,13.67,8.63,154
DPTAW,2015-07-25,16:35:00,530701-002,207,4.3,170,0,0,0,0,170,0,,31,0,0,,0,0,0,,65.6,0,0,13.97,8.63,163
DPTAW,2015-07-25,16:30:00,530701-002,208,3.5,119,0,0,0,0,119,0,,30.96,0,0,,0,0,0,,66.6,0,0,13.8,8.83,325
DPTAW,2015-07-25,16:25:00,530701-002,209,4.6,165,0,0,0,0,165,0,,30.91,0,0,,0,0,0,,66.3,0,0,13.8,8.78,258
DPTAW,2015-07-25,16:20:00,530701-002,210,3.5,183,0,0,0,0,183,0,,30.95,0,0,,0,0,0,,66.2,0,0,13.8,8.73,231
DPTAW,2015-07-25,16:15:00,530701-002,211,5.1,161,0,0,0,0,161,0,,30.87,0,0,,0,0,0,,67.4,0,0,13.67,8.78,260
DPTAW,2015-07-25,16:10:00,530701-002,212,2.4,186,0,0,0,0,186,0,,30.89,0,0,,0,0,0,,69.1,0,0,13.75,8.78,245
DPTAW,2015-07-25,16:00:00,530701-002,213,2.5,174,0,0,0,0,174,0,,30.73,0,0,,0,0,0,,71,0,0,13.75,8.78,242
DPTAW,2015-07-25,15:55:00,530701-002,214,2.3,176,0,0,0,0,176,0,,30.6,0,0,,0,0,0,,69.4,0,0,13.8,8.83,273
DPTAW,2015-07-25,15:50:00,530701-002,215,1.9,189,0,0,0,0,189,0,,30.51,0,0,,0,0,0,,72.3,0,0,13.8,8.83,296
DPTAW,2015-07-25,15:45:00,530701-002,216,1.4,176,0,0,0,0,176,0,,30.43,0,0,,0,0,0,,74.9,0,0,13.75,8.9,418
DPTAW,2015-07-25,15:40:00,530701-002,217,5.7,143,0,0,0,0,143,0,,30.41,0,0,,0,0,0,,71.9,0,0,13.69,8.83,332
DPTAW,2015-07-25,15:35:00,530701-002,218,3.1,175,0,0,0,0,175,0,,30.66,0,0,,0,0,0,,71.2,0,0,13.67,8.73,0
DPTAW,2015-07-25,15:30:00,530701-002,219,2.6,172,0,0,0,0,172,0,,30.8,0,0,,0,0,0,,69.8,0,0,13.83,8.65,227
DPTAW,2015-07-25,15:25:00,530701-002,220,2.7,175,0,0,0,0,175,0,,30.92,0,0,,0,0,0,,69.1,0,0,13.78,8.63,212
DPTAW,2015-07-25,15:20:00,530701-002,221,5.1,182,0,0,0,0,182,0,,31.07,0,0,,0,0,0,,68.6,0,0,13.61,8.63,197
DPTAW,2015-07-25,15:15:00,530701-002,222,7.7,155,0,0,0,0,155,0,,31.18,0,0,,0,0,0,,69.8,0,0,13.8,8.83,426
DPTAW,2015-07-25,15:10:00,530701-002,223,6.6,189,0,0,0,0,189,0,,30.78,0,0,,0,0,0,,70.1,0,0,13.8,9.4,932
DPTAW,2015-07-25,15:05:00,530701-002,224,7.4,194,0,0,0,0,194,0,,30.49,0,0,,0,0,0,,70.7,0,0,13.78,9.02,516
DPTAW,2015-07-25,14:50:00,530701-002,225,5.7,151,0,0,0,0,151,0,,30.71,0,0,,0,0,0,,68.5,0,0,13.69,8.9,466
DPTAW,2015-07-25,14:45:00,530701-002,226,7.6,184,0,0,0,0,184,0,,30.62,0,0,,0,0,0,,69.9,0,0,13.8,8.85,481
DPTAW,2015-07-25,14:40:00,530701-002,227,6.8,187,0,0,0,0,187,0,,30.62,0,0,,0,0,0,,69.6,0,0,13.69,8.83,400
DPTAW,2015-07-25,14:35:00,530701-002,228,5.1,177,0,0,0,0,177,0,,30.82,0,0,,0,0,0,,69.2,0,0,13.8,8.83,0
DPTAW,2015-07-25,14:30:00,530701-002,229,5.1,95,0,0,0,0,95,0,,30.89,0,0,,0,0,0,,68.8,0,0,13.8,8.83,404